Wind_Speed
15 15 15 14 15 15 16 17 16 15 15 16 16 15 15 16 16 16 16 15 15 15 15 14 14 14 14 14 14 14 14 15 15 15 15 16 15 15
16 17 17 17 17 17 17 18 18 17 16 17 17 17 17 17 17 17 17 17 16 16 16 15 15 15 15 15 15 15 15 16 16 16 16 16 16 16
18 18 18 18 19 19 19 19 19 18 18 18 18 19 19 19 19 19 18 18 18 18 17 17 16 16 16 16 16 17 17 17 17 18 18 17 17 17
20 20 19 19 20 20 20 20 20 19 19 20 20 21 21 20 20 20 19 19 19 19 19 19 18 18 18 18 18 18 18 18 19 19 19 19 18 18
21 21 21 21 21 21 20 21 21 21 21 21 22 22 22 21 21 21 21 20 20 20 20 20 19 20 20 20 20 21 20 21 21 21 21 20 20 20
22 23 22 22 22 22 22 22 22 22 22 22 23 23 23 23 23 23 22 22 22 22 22 22 22 22 22 22 22 23 23 23 24 24 22 22 22 22
23 24 24 23 23 23 23 23 23 22 22 23 23 23 24 24 24 24 24 24 24 24 23 24 24 24 25 24 24 24 24 24 24 24 24 23 23 23
24 24 24 24 24 24 24 24 23 23 23 24 23 24 24 25 25 25 25 25 26 26 26 26 27 26 26 26 26 26 26 26 26 26 26 26 25 25
26 25 26 26 25 25 24 24 24 25 25 25 25 25 26 25 26 26 26 26 27 27 27 27 28 28 28 28 28 28 29 29 29 28 28 28 28 27
26 26 27 26 26 25 25 25 26 26 27 27 28 28 28 28 27 27 28 28 28 28 28 28 28 29 30 29 30 30 30 30 30 29 29 29 29 30
28 28 28 28 28 28 28 28 28 28 29 29 29 30 30 29 29 30 30 30 29 29 29 29 29 29 30 30 30 31 31 31 31 31 31 31 31 31
29 30 30 30 30 29 29 29 30 30 31 31 31 31 31 31 31 31 31 32 31 31 31 31 31 31 31 31 32 32 32 33 32 32 32 32 32 32
30 30 29 29 30 30 30 31 32 32 32 32 33 33 33 32 32 32 33 33 33 33 33 32 32 33 33 33 33 33 34 34 34 33 32 33 33 33
29 29 30 30 30 31 31 32 33 33 33 33 33 33 33 33 33 33 34 35 35 34 34 34 34 34 34 35 35 35 36 35 35 35 35 35 34 34
29 30 30 31 32 32 32 33 33 34 34 34 34 34 34 34 35 35 36 36 37 36 36 36 36 36 36 36 36 36 36 36 36 36 37 37 36 36
30 31 31 32 33 33 34 34 34 34 34 34 34 35 35 35 36 37 37 38 38 38 37 37 37 37 37 37 37 37 37 37 37 38 38 38 38 38
32 32 32 33 34 34 35 35 35 35 35 36 36 36 36 36 36 37 38 39 39 39 39 39 39 39 38 38 38 37 37 37 37 38 38 38 38 39
33 33 34 34 35 35 36 36 36 36 36 37 37 37 37 37 38 38 39 39 39 39 39 39 40 39 39 38 38 38 38 38 38 38 38 38 39 39
34 34 35 35 36 36 36 36 36 37 37 37 37 37 38 38 38 38 38 39 39 39 39 39 39 40 39 39 38 39 39 39 39 39 38 39 39 39
35 36 35 36 36 36 36 37 37 37 37 37 37 37 38 38 37 37 37 38 38 39 39 38 39 39 39 39 39 39 38 38 38 38 39 38 38 38
36 36 36 36 36 37 37 38 38 38 38 37 38 38 38 38 37 37 37 37 37 37 37 37 37 38 38 38 37 38 38 39 39 38 38 38 38 38
36 35 35 36 37 37 38 38 38 38 38 38 39 38 38 38 38 38 37 37 37 37 36 36 36 36 37 37 37 37 38 38 38 38 37 37 37 37
37 37 37 37 38 38 38 38 38 38 39 38 38 38 39 38 38 38 38 37 37 37 37 37 37 37 37 36 37 37 38 38 38 38 37 38 38 38
Wind_Direction
295 296 298 298 298 297 297 296 296 296 296 296 295 295 295 295 294 293 292 291 290 289 283 280 277 276 277 276 275 273 272 271 272 272 271 269 265 266
292 295 296 295 295 295 295 294 293 292 293 293 293 293 294 294 292 290 289 288 287 288 288 284 279 276 277 278 278 278 276 272 271 273 273 270 272 273
290 293 294 293 294 294 294 294 293 290 289 290 291 290 291 292 291 290 287 286 285 285 286 282 279 280 279 280 279 277 278 277 277 275 275 275 273 273
288 289 290 291 291 291 291 291 291 289 288 288 289 289 290 290 290 288 287 286 285 284 283 283 281 279 279 277 276 277 278 279 280 279 279 277 275 275
285 287 289 289 290 291 291 289 288 286 287 287 288 288 288 287 287 286 286 285 283 282 280 280 280 279 278 277 275 274 277 279 278 278 280 278 275 274
284 287 288 288 288 289 290 290 288 286 286 287 288 288 288 286 285 283 283 283 281 281 279 278 277 277 278 278 276 274 274 276 278 278 277 277 277 277
283 285 286 287 286 286 288 288 288 289 288 287 288 287 288 286 283 283 283 282 281 279 276 277 276 276 277 276 275 275 275 275 276 276 275 276 277 277
283 284 285 286 285 286 288 288 288 289 288 287 288 287 288 286 284 283 283 282 280 278 278 277 277 276 276 276 275 275 275 276 275 275 275 275 275 277
284 284 285 287 287 286 286 287 287 287 287 286 287 287 287 286 285 284 284 283 282 279 278 278 277 277 277 277 277 276 275 273 273 274 275 276 276 277
287 285 286 287 287 286 286 288 288 289 287 285 286 287 287 285 284 284 284 282 281 279 277 277 277 277 276 276 277 276 275 274 272 272 273 274 274 274
288 286 286 286 286 285 285 287 288 288 287 286 286 287 287 287 285 283 283 283 281 281 279 278 277 277 276 275 276 276 274 273 272 272 272 273 274 274
288 287 287 286 285 284 284 286 287 288 288 287 286 287 286 285 285 284 283 282 280 280 280 279 278 277 276 275 275 274 274 272 272 272 272 272 273 273
287 286 286 287 286 285 284 285 286 286 287 287 286 286 286 285 284 284 283 283 281 280 280 280 278 277 276 275 275 274 274 273 272 272 273 273 273 273
288 287 286 287 288 287 286 286 287 287 286 286 286 286 285 284 284 284 283 282 281 280 279 280 279 279 278 277 276 275 274 274 273 273 272 272 273 273
289 287 287 287 289 288 287 287 288 288 287 286 286 286 285 284 283 284 284 283 282 280 279 279 279 280 279 279 277 276 274 272 272 272 271 272 272 272
289 288 288 288 289 289 290 289 289 289 288 287 286 286 285 285 285 285 284 283 282 282 280 278 278 279 279 278 278 276 275 273 271 271 270 270 270 271
289 289 289 289 291 291 292 292 290 289 287 285 285 285 285 285 286 286 285 283 283 282 280 279 278 277 277 278 278 276 274 272 271 271 271 270 270 271
289 289 289 290 291 292 291 291 291 290 288 287 286 286 285 285 286 286 286 284 283 282 280 278 278 277 276 275 275 275 274 273 272 271 270 270 270 270
290 290 289 290 291 291 291 291 291 291 289 289 289 288 287 286 287 286 286 285 284 282 280 278 277 277 276 276 276 274 273 272 273 271 270 270 270 269
290 291 290 290 290 290 290 291 291 291 291 290 289 288 288 287 287 287 287 286 285 283 281 279 278 278 278 277 276 274 272 272 272 272 270 269 270 269
290 290 290 289 289 290 290 290 290 290 289 289 288 287 287 286 286 287 287 287 286 284 282 280 279 278 278 278 276 274 273 272 272 271 269 269 270 270
289 290 290 290 290 290 290 291 290 289 288 288 288 287 285 285 286 286 287 286 285 283 281 280 280 280 279 278 276 275 274 272 271 269 268 269 269 270
290 290 290 290 290 290 290 290 290 290 289 288 286 286 286 285 285 285 286 286 284 282 280 279 279 280 279 277 276 275 274 272 271 269 268 268 268 268
Height
5874 5873 5871 5870 5869 5867 5866 5865 5864 5862 5861 5859 5857 5856 5855 5853 5853 5852 5851 5850 5849 5848 5847 5846 5845 5845 5844 5844 5843 5842 5842 5841 5841 5841 5841 5841 5840 5840
5870 5869 5867 5866 5864 5863 5862 5860 5859 5858 5856 5855 5853 5852 5850 5849 5848 5847 5846 5845 5844 5843 5842 5842 5841 5840 5840 5839 5839 5838 5838 5837 5837 5837 5837 5837 5836 5836
5865 5864 5863 5861 5860 5858 5857 5856 5854 5853 5852 5851 5849 5847 5846 5845 5844 5843 5841 5840 5839 5839 5838 5837 5837 5836 5835 5835 5835 5834 5834 5833 5833 5832 5832 5832 5832 5831
5860 5859 5858 5856 5855 5853 5852 5850 5849 5847 5846 5845 5844 5842 5841 5839 5838 5837 5836 5835 5834 5833 5833 5832 5831 5831 5831 5830 5830 5829 5829 5828 5828 5827 5827 5827 5827 5826
5855 5853 5852 5850 5849 5847 5846 5844 5843 5842 5840 5839 5838 5836 5835 5833 5832 5831 5830 5829 5828 5828 5827 5827 5826 5825 5825 5825 5824 5824 5823 5823 5823 5822 5822 5821 5821 5821
5849 5847 5846 5844 5843 5841 5840 5838 5836 5835 5834 5833 5831 5829 5828 5827 5826 5825 5824 5823 5822 5821 5821 5820 5820 5819 5819 5818 5818 5817 5817 5816 5816 5816 5815 5815 5815 5814
5843 5841 5839 5838 5836 5835 5833 5832 5830 5828 5827 5826 5824 5823 5821 5820 5819 5818 5817 5816 5815 5814 5814 5813 5813 5812 5812 5811 5811 5810 5810 5809 5809 5809 5808 5808 5808 5807
5836 5835 5833 5831 5830 5828 5826 5825 5824 5822 5821 5819 5817 5816 5815 5813 5812 5810 5809 5809 5808 5807 5806 5806 5805 5804 5804 5804 5803 5803 5802 5802 5801 5801 5801 5801 5800 5800
5829 5827 5826 5824 5823 5821 5819 5818 5816 5815 5814 5812 5811 5809 5807 5806 5804 5803 5802 5801 5800 5799 5798 5797 5796 5796 5795 5795 5795 5794 5794 5794 5793 5793 5793 5793 5793 5793
5822 5820 5818 5817 5815 5813 5812 5810 5809 5807 5806 5804 5803 5801 5799 5798 5796 5795 5794 5792 5791 5790 5789 5789 5788 5787 5787 5786 5786 5785 5785 5785 5785 5784 5784 5784 5784 5784
5814 5812 5810 5809 5807 5806 5804 5802 5801 5799 5797 5796 5794 5792 5791 5789 5787 5786 5785 5783 5782 5781 5780 5780 5779 5778 5777 5777 5776 5776 5775 5776 5776 5775 5775 5775 5775 5775
5806 5804 5802 5800 5799 5797 5795 5793 5792 5790 5788 5786 5785 5783 5781 5780 5778 5777 5775 5774 5773 5772 5771 5770 5769 5769 5768 5768 5767 5766 5766 5766 5766 5766 5766 5766 5766 5765
5798 5796 5794 5792 5790 5788 5786 5784 5782 5780 5778 5776 5775 5773 5771 5770 5768 5767 5765 5764 5763 5762 5761 5760 5759 5758 5758 5758 5757 5756 5756 5756 5755 5755 5756 5756 5756 5756
5789 5787 5785 5783 5781 5779 5777 5775 5773 5771 5768 5767 5765 5763 5761 5760 5758 5757 5755 5753 5752 5751 5751 5750 5749 5748 5747 5747 5746 5745 5745 5745 5745 5745 5745 5745 5745 5745
5780 5778 5776 5774 5772 5770 5768 5765 5763 5760 5758 5756 5755 5753 5751 5749 5747 5746 5744 5743 5741 5740 5739 5738 5738 5737 5736 5735 5735 5734 5733 5733 5733 5734 5734 5734 5734 5734
5771 5769 5767 5765 5762 5760 5758 5755 5753 5750 5748 5746 5744 5742 5740 5738 5736 5734 5732 5731 5730 5729 5727 5727 5726 5725 5724 5723 5722 5722 5721 5721 5721 5721 5722 5722 5722 5722
5761 5759 5757 5755 5752 5750 5747 5744 5742 5739 5737 5735 5732 5730 5728 5726 5724 5722 5720 5719 5717 5716 5715 5714 5713 5712 5712 5711 5710 5709 5709 5709 5709 5709 5709 5710 5710 5710
5751 5749 5747 5744 5742 5739 5736 5734 5731 5728 5725 5723 5721 5718 5716 5714 5712 5710 5708 5706 5705 5703 5702 5701 5700 5699 5699 5698 5698 5697 5696 5696 5697 5697 5697 5697 5698 5698
5741 5739 5736 5734 5731 5728 5725 5723 5720 5717 5714 5712 5709 5707 5705 5702 5700 5698 5696 5694 5692 5690 5689 5688 5687 5686 5686 5685 5685 5684 5684 5683 5683 5684 5684 5684 5685 5685
5730 5728 5726 5723 5720 5717 5714 5712 5709 5706 5703 5700 5698 5695 5693 5690 5688 5686 5683 5681 5679 5678 5676 5675 5674 5674 5673 5673 5672 5671 5671 5670 5671 5671 5671 5671 5671 5672
5719 5717 5714 5712 5709 5706 5703 5700 5697 5694 5691 5688 5686 5683 5681 5678 5676 5674 5671 5669 5667 5665 5664 5663 5662 5661 5660 5659 5659 5658 5658 5658 5658 5658 5658 5658 5659 5659
5708 5705 5703 5700 5697 5694 5691 5688 5685 5682 5679 5676 5673 5671 5668 5666 5663 5661 5659 5657 5655 5653 5651 5650 5650 5649 5648 5647 5647 5646 5646 5646 5645 5645 5645 5646 5646 5647
5696 5694 5691 5688 5686 5682 5679 5676 5673 5670 5667 5664 5661 5658 5656 5653 5651 5649 5647 5645 5643 5641 5640 5638 5638 5637 5636 5634 5634 5634 5633 5633 5633 5633 5634 5633 5634 5634